Vorticity
nan nan nan nan nan nan nan nan nan nan nan nan nan nan nan nan nan nan nan nan nan nan nan nan nan nan nan nan nan nan nan nan nan nan nan nan nan nan nan nan nan nan nan nan nan nan nan nan nan nan nan nan nan nan nan nan nan nan nan nan nan nan nan nan nan nan nan nan nan nan nan nan nan nan nan nan nan nan nan nan nan nan nan nan nan nan nan nan nan nan nan nan nan nan nan nan nan nan nan nan nan nan nan
nan 7 4 3 3 4 4 3 4 4 4 4 4 4 5 5 5 6 6 6 6 7 7 5 5 6 8 9 9 9 9 10 7 2 -2 -1 2 4 5 6 7 7 7 7 8 7 3 2 4 5 3 2 2 3 5 5 4 4 4 4 4 6 8 10 11 12 10 8 6 5 5 7 7 6 4 3 3 3 4 4 4 4 4 5 5 6 7 7 7 7 6 6 6 6 6 6 6 6 5 5 5 4 nan
nan 5 4 5 5 5 4 3 4 4 3 4 4 4 4 5 6 6 6 5 5 5 6 7 7 7 8 9 10 10 12 13 10 5 0 0 1 2 4 5 7 8 8 9 9 9 5 5 5 5 3 2 2 2 4 4 4 4 4 4 4 4 6 8 11 13 12 8 6 4 4 6 6 6 5 4 4 4 4 5 5 5 4 5 5 5 6 7 7 7 7 6 6 6 6 6 6 6 6 5 5 5 nan
nan 4 6 8 8 6 5 6 7 7 6 5 3 2 3 4 5 5 5 5 5 5 6 9 10 9 6 5 5 6 10 14 14 12 8 5 3 2 5 6 6 6 7 8 9 8 6 6 7 6 5 4 3 3 3 3 4 4 4 5 5 4 5 7 9 13 13 9 6 4 4 5 5 5 5 6 6 5 6 5 5 5 4 4 5 5 5 6 6 7 7 7 6 6 6 6 6 7 7 7 6 6 nan
nan 7 8 9 8 7 6 8 8 8 8 6 4 2 3 3 3 4 5 4 4 5 7 10 10 8 5 2 2 2 5 9 12 14 14 11 8 6 5 4 4 3 4 6 7 6 6 7 7 7 7 6 5 5 4 4 4 4 4 5 5 5 4 5 8 11 13 11 8 5 3 3 4 5 7 7 7 6 6 5 5 5 4 4 5 5 4 5 5 6 7 7 7 6 6 6 6 6 8 9 9 9 nan
nan 8 8 7 6 5 6 7 7 8 8 7 6 5 3 1 1 2 4 4 4 5 7 10 11 8 5 3 2 1 1 3 7 11 14 13 11 9 5 3 3 3 4 5 4 3 7 7 6 7 8 7 6 6 6 5 5 4 4 5 6 6 6 5 7 9 12 12 11 8 5 3 5 6 7 7 7 7 6 5 5 5 5 5 5 4 4 4 5 5 6 7 7 6 6 6 6 6 7 10 10 11 nan
nan 9 9 8 7 5 5 6 6 7 7 7 6 5 3 2 2 3 4 4 4 4 5 8 11 12 11 8 6 4 2 -0 1 4 7 10 11 11 7 5 4 4 3 1 2 4 7 8 7 7 7 7 6 5 6 5 5 4 4 6 6 6 5 5 5 7 9 11 12 10 8 6 6 6 6 7 8 8 5 5 5 5 5 6 6 5 4 4 4 5 5 6 6 6 6 5 5 5 6 7 9 10 nan
nan 13 15 14 10 7 4 4 5 8 9 8 6 4 4 5 5 4 4 3 3 3 3 6 9 14 15 12 10 8 6 4 2 1 3 7 9 10 7 5 4 4 4 3 4 4 3 5 8 8 7 6 7 6 5 6 6 5 6 6 6 6 5 5 5 6 8 10 11 10 9 8 7 6 6 6 7 7 5 5 5 6 6 7 7 6 5 4 4 5 5 5 6 6 5 5 5 5 5 5 7 7 nan
nan 17 19 18 14 11 7 6 6 7 8 7 6 6 7 8 8 7 5 3 2 2 2 3 7 12 15 14 12 10 8 8 6 5 6 7 8 9 10 9 7 6 5 5 4 3 -0 1 5 7 7 6 8 7 5 6 7 6 6 6 6 6 6 5 5 5 6 9 10 10 10 9 8 7 6 6 7 6 5 5 6 6 7 8 8 7 6 5 5 5 5 5 5 5 5 5 5 5 5 5 5 6 nan
nan 18 21 20 18 15 11 8 7 6 7 8 7 8 7 6 6 6 6 5 3 3 3 3 6 8 12 14 13 10 9 8 9 10 10 10 9 8 10 13 11 10 10 10 8 7 1 -2 2 4 7 7 7 7 5 5 7 6 7 7 6 5 5 5 5 5 6 7 8 9 10 10 9 8 7 7 6 5 4 5 6 7 8 8 8 8 7 6 5 5 6 5 5 5 5 5 5 5 5 5 5 5 nan
nan 15 17 17 16 14 13 11 10 9 8 8 9 10 9 7 6 5 5 6 5 5 5 5 6 6 9 12 12 12 10 9 9 10 10 10 10 8 8 11 12 12 12 14 15 14 8 3 2 3 4 6 6 7 6 6 7 6 7 7 6 5 5 5 5 5 6 6 7 8 10 9 10 11 10 9 7 5 4 5 6 7 7 7 8 8 8 7 7 6 6 5 5 5 5 5 5 5 5 5 5 5 nan
nan 8 10 11 11 12 12 11 10 10 9 10 12 13 13 11 9 7 6 7 7 6 7 7 7 7 8 9 11 12 12 10 9 9 9 9 8 6 6 9 11 12 11 12 15 16 12 7 7 5 4 6 6 7 7 7 7 6 7 6 5 5 5 5 5 6 6 5 6 7 9 9 11 13 13 12 10 7 5 5 6 7 7 6 7 8 9 8 8 8 7 5 5 5 5 5 5 5 5 5 5 5 nan
nan 3 4 8 11 10 9 8 9 9 10 11 12 13 13 11 9 8 7 7 7 7 7 7 8 8 7 8 9 10 12 12 11 10 9 9 9 8 8 8 10 9 7 7 9 11 10 8 9 9 7 7 7 6 6 7 7 7 6 5 4 5 5 5 6 6 6 5 5 6 7 8 11 12 13 13 11 9 8 6 7 7 7 6 6 7 8 8 9 8 7 5 5 5 5 5 5 4 4 4 5 5 nan
nan 3 6 10 10 7 6 6 6 6 7 8 9 10 11 11 10 8 8 8 8 8 8 8 8 8 8 8 8 9 10 11 11 10 9 8 9 10 11 10 9 7 6 5 4 6 7 7 9 10 8 7 7 6 5 5 6 7 5 5 5 4 5 5 6 6 7 6 6 5 6 7 9 9 11 11 10 8 9 8 8 8 7 6 6 6 7 8 8 8 7 5 5 4 5 5 4 4 4 4 5 5 nan
nan 7 10 9 6 4 3 3 3 4 4 5 6 7 9 9 10 10 9 9 9 9 9 8 8 8 9 8 8 7 7 8 9 9 8 8 9 10 10 8 8 6 4 3 4 5 5 6 8 8 8 6 6 7 6 5 6 7 6 5 5 4 5 5 6 6 7 7 6 6 5 6 8 8 9 8 7 7 8 9 10 9 7 6 6 6 7 7 7 7 6 5 4 4 5 5 4 4 4 4 5 5 nan
nan 11 11 8 4 2 1 1 1 2 3 4 5 6 7 8 9 11 11 11 11 11 12 11 9 9 8 7 6 6 6 5 7 7 6 6 6 8 8 7 6 6 4 4 5 6 5 6 7 7 7 6 6 7 6 6 6 7 7 6 5 5 4 5 5 6 7 7 7 7 7 7 8 8 8 7 6 6 6 8 9 9 7 6 6 6 6 7 6 6 5 5 4 4 5 5 5 4 4 4 5 5 nan
nan 10 10 7 5 3 2 2 3 4 5 5 6 6 6 8 10 11 12 12 13 15 16 14 12 10 7 6 6 5 5 6 7 7 7 6 6 6 5 6 6 6 6 7 6 6 6 7 7 7 7 7 7 8 8 7 7 7 7 6 5 5 4 5 5 6 7 8 9 9 8 8 8 9 8 7 7 6 6 7 9 9 8 6 6 6 6 6 6 5 5 5 4 4 5 5 5 4 4 5 5 5 nan
nan 7 9 8 7 6 5 5 6 7 7 7 7 7 7 8 10 11 11 12 14 15 15 14 13 13 9 7 8 8 8 9 9 9 9 7 7 7 6 7 7 7 8 7 6 5 7 8 7 7 7 8 8 8 8 8 8 8 7 6 5 5 4 5 5 6 7 8 9 10 9 9 9 10 10 9 8 7 6 8 9 9 8 7 6 6 6 6 6 5 5 5 5 5 5 5 5 5 5 5 5 5 nan
nan 8 9 9 10 10 10 10 10 10 9 8 8 8 8 9 10 10 10 10 11 12 12 12 13 14 12 11 11 12 12 9 9 9 9 10 10 9 8 9 9 8 8 6 5 6 7 7 6 6 6 8 7 7 7 8 8 8 7 6 5 5 5 5 5 6 7 8 10 11 11 11 11 12 11 10 9 7 7 8 10 10 8 7 6 5 6 6 5 5 5 5 5 5 5 5 5 5 5 5 5 5 nan
nan 14 13 14 14 14 15 15 14 12 10 8 8 9 9 10 11 10 9 9 10 10 10 10 13 14 15 14 12 11 10 8 7 7 7 8 10 10 9 9 9 8 7 6 7 8 8 7 7 7 6 7 8 8 7 7 8 8 7 6 5 5 5 6 6 6 7 8 9 11 12 13 12 12 12 12 11 8 6 7 9 10 9 7 6 5 6 5 6 6 6 6 5 5 5 5 5 5 5 5 5 5 nan
nan 18 17 17 16 16 17 16 15 14 11 9 10 9 10 11 11 11 10 10 10 10 10 12 15 15 16 13 8 6 6 7 6 5 6 6 7 7 6 6 7 7 7 8 10 10 9 9 9 8 7 8 8 9 7 7 8 8 7 6 6 6 6 6 6 6 6 7 8 9 12 14 14 14 13 13 11 9 7 6 9 10 10 8 6 6 6 6 6 6 6 6 6 6 6 6 5 5 5 5 5 5 nan
nan 16 16 15 14 14 13 13 13 12 9 10 11 10 10 10 10 10 10 11 11 11 11 13 14 13 13 11 7 5 5 7 6 6 5 6 6 5 4 4 5 6 6 8 10 10 10 10 10 9 9 8 8 8 9 9 8 8 7 6 6 5 5 5 5 5 5 6 6 8 11 14 15 15 15 14 12 10 7 6 8 10 11 9 6 6 7 7 7 7 6 6 6 6 6 6 6 6 5 5 5 5 nan
nan 10 11 12 11 11 10 10 10 9 9 11 12 11 10 8 8 8 9 10 9 9 10 11 10 10 9 10 8 6 5 4 5 5 6 6 6 5 5 4 4 5 7 7 7 8 9 9 9 9 9 8 8 8 9 9 8 7 6 5 5 5 4 4 4 5 5 5 6 7 9 11 15 16 16 15 12 9 5 5 7 10 11 10 7 7 7 7 7 7 6 6 6 6 6 7 7 6 6 5 5 5 nan
nan 8 8 9 9 9 10 9 10 9 10 11 12 11 9 7 6 7 7 7 7 7 8 8 8 7 6 6 6 6 5 4 4 5 7 6 5 5 6 5 4 4 6 6 6 6 8 7 8 9 9 8 8 8 9 10 8 7 6 5 5 4 4 4 4 5 5 5 5 6 7 9 13 15 17 16 13 9 6 6 7 9 11 11 10 8 7 7 7 7 6 6 6 6 6 7 7 7 6 5 5 6 nan
nan 8 7 8 8 9 10 10 11 10 9 10 10 9 8 7 8 8 7 6 6 7 8 8 7 6 5 5 5 6 6 7 8 7 6 6 5 4 5 5 5 5 5 6 7 7 7 6 6 7 8 9 8 8 10 10 9 8 6 5 5 5 5 5 5 5 5 5 5 5 6 7 10 13 17 17 14 11 7 5 6 8 10 12 12 10 8 7 6 6 6 6 6 6 6 6 7 7 6 6 6 6 nan
nan 8 7 7 7 9 10 11 11 11 10 10 9 7 7 9 10 10 9 7 7 7 7 6 5 6 8 9 9 9 8 10 11 11 9 7 6 6 5 6 7 6 5 7 7 8 6 6 6 6 6 8 8 8 10 10 9 9 7 6 6 6 5 5 6 6 6 6 6 6 6 6 7 11 15 17 16 13 9 6 6 7 9 11 13 13 9 7 6 6 5 5 6 6 6 6 6 6 6 6 6 6 nan
nan 8 7 7 9 9 9 10 11 11 12 11 9 8 8 9 10 9 9 8 8 7 6 6 7 9 10 12 11 10 10 10 10 12 11 10 9 8 7 7 7 7 7 7 6 6 6 6 6 5 5 6 7 8 11 11 10 9 8 7 7 6 6 6 6 6 6 6 6 6 6 6 6 8 12 16 17 15 10 7 6 6 7 9 11 13 11 9 7 6 5 5 6 6 6 6 6 6 6 6 6 6 nan
nan 7 7 9 9 9 9 9 9 10 11 12 12 11 10 9 9 8 8 8 8 8 8 9 9 9 8 9 10 10 10 9 9 9 9 11 11 10 9 8 7 8 8 6 5 4 5 5 5 5 5 5 6 7 9 12 11 10 9 8 8 7 7 7 6 6 6 6 6 6 6 6 6 6 9 14 17 17 13 8 7 7 7 7 8 11 13 12 9 7 6 5 6 7 7 7 6 6 7 6 6 6 nan
nan 8 8 8 8 8 8 8 8 9 10 12 13 13 11 10 9 9 9 9 9 9 9 9 9 8 7 7 8 9 9 9 10 10 8 9 10 10 10 9 8 7 6 4 4 4 5 5 5 6 7 5 4 5 7 10 12 11 10 9 8 8 7 7 7 7 7 7 7 7 7 7 7 6 7 11 14 17 15 10 8 8 7 7 6 7 11 13 11 8 6 5 6 7 7 7 6 6 7 7 7 7 nan
nan 8 8 7 8 8 8 8 8 8 8 10 11 11 11 10 10 10 10 10 10 10 9 8 8 8 8 8 8 8 8 8 10 11 10 7 7 8 9 9 8 7 6 6 8 9 9 8 7 7 9 9 7 5 5 8 12 12 10 9 9 8 8 7 7 7 7 7 7 7 7 8 8 7 7 8 11 15 16 12 9 8 7 7 6 5 9 13 11 9 6 5 6 6 7 7 7 6 7 7 7 7 nan
nan 9 8 8 8 8 7 8 8 7 7 7 8 9 9 9 10 10 9 9 9 9 9 9 9 9 9 9 9 9 9 9 9 10 11 10 8 8 7 6 7 7 7 9 10 11 12 12 11 9 8 9 9 8 7 8 11 13 12 10 9 9 8 8 7 7 7 7 7 7 7 8 8 9 8 8 9 13 16 15 11 8 7 7 7 5 6 8 10 10 7 5 5 6 7 7 7 7 7 7 7 7 nan
nan 8 8 8 8 7 7 8 7 7 6 6 7 7 8 8 9 9 9 9 8 8 8 8 8 9 8 8 9 9 9 8 8 9 10 11 11 10 9 8 8 9 9 9 9 8 9 11 11 9 6 5 5 7 8 8 10 13 14 12 10 9 9 9 8 8 8 7 7 7 7 8 8 9 9 9 9 10 14 16 13 10 7 6 6 6 6 6 8 9 8 7 6 6 7 7 7 7 7 7 7 7 nan
nan 9 8 7 7 7 8 8 7 6 5 6 6 7 6 6 8 8 9 8 7 6 6 6 6 7 7 7 7 7 8 7 6 7 8 9 10 11 12 11 9 9 8 7 7 7 7 8 9 8 7 6 4 4 5 7 9 11 15 15 13 11 10 10 9 9 8 8 7 7 7 7 8 9 10 10 10 10 12 16 15 13 10 7 6 6 5 4 6 7 9 8 7 6 6 7 7 8 8 8 7 7 nan
nan 8 8 8 8 7 7 7 7 6 6 7 6 5 4 5 7 8 9 8 8 8 9 9 9 9 9 8 7 7 7 7 6 6 6 6 7 8 9 11 11 10 9 6 6 7 7 7 8 9 8 8 6 5 5 7 8 10 12 14 14 13 11 11 11 10 9 9 8 7 7 7 8 9 9 10 11 10 11 13 15 15 13 9 7 6 5 5 6 7 8 9 9 7 6 7 7 8 8 8 8 7 nan
nan 9 8 8 8 7 7 7 7 6 5 7 6 5 4 7 10 11 12 12 12 13 13 14 14 13 12 10 8 7 7 8 8 7 6 5 6 7 8 9 9 10 11 9 8 8 7 7 8 9 9 9 9 9 7 7 8 8 9 12 12 14 14 12 13 13 12 11 10 9 8 7 7 8 9 10 10 10 10 11 14 16 15 13 10 8 6 6 6 6 7 9 9 9 7 7 7 8 8 8 8 7 nan
nan 9 8 8 8 7 7 7 6 4 5 8 8 7 8 12 13 12 12 12 11 12 13 14 15 14 13 12 10 9 9 9 9 9 9 9 9 9 9 8 8 8 9 12 12 12 9 8 8 8 9 10 11 11 9 8 7 6 8 11 12 14 15 15 15 16 15 13 12 11 9 8 7 7 8 8 9 10 10 11 12 14 16 15 14 12 9 8 7 7 7 8 9 9 8 7 7 7 8 8 8 7 nan
nan 9 9 8 7 8 8 6 4 2 6 11 11 10 11 12 11 9 9 8 8 9 12 13 13 13 13 12 11 10 8 8 8 7 8 10 10 10 9 10 9 9 8 11 12 12 11 9 7 8 8 10 10 9 9 8 7 6 6 8 10 11 12 13 15 16 17 16 14 13 11 10 8 8 7 7 7 8 9 10 10 12 14 15 16 15 12 10 9 8 8 8 9 9 9 8 7 7 8 8 7 7 nan
nan 10 9 8 7 7 8 6 3 3 9 12 11 10 10 9 8 8 8 7 8 10 11 11 11 12 13 12 11 9 7 7 6 6 7 8 8 8 9 10 10 9 9 9 9 10 10 10 9 8 8 8 7 7 7 6 6 5 5 6 6 7 9 9 10 12 15 18 18 16 13 12 10 9 7 6 6 7 8 9 10 11 12 14 16 16 14 12 11 10 9 9 9 9 9 7 7 7 7 7 7 7 nan
nan 10 9 8 7 8 8 3 2 7 12 12 11 8 8 9 9 9 8 8 9 9 9 9 11 12 13 11 10 9 8 8 7 6 6 6 6 7 8 10 10 9 8 8 8 8 10 10 9 8 8 8 8 8 7 5 5 5 4 5 6 6 7 8 8 8 11 15 18 18 16 14 12 10 8 7 6 6 7 8 9 10 11 13 14 14 14 13 12 11 10 10 10 10 9 8 7 6 6 7 7 6 nan
nan 10 9 8 8 9 5 0 3 11 14 11 10 8 9 10 9 9 8 8 9 9 8 9 10 11 11 11 10 10 11 9 8 6 5 5 6 7 8 8 9 8 8 7 7 7 9 9 9 8 8 8 9 9 9 7 7 7 6 5 5 5 5 7 7 7 8 10 14 18 19 16 14 13 10 8 7 6 7 9 10 11 12 12 13 13 13 13 13 12 11 10 10 10 10 9 7 6 5 6 6 6 nan
nan 10 9 9 8 7 2 2 8 14 13 11 10 9 9 10 9 8 7 8 9 9 9 10 10 10 10 10 11 10 11 10 9 8 6 6 6 6 6 7 7 8 8 7 7 7 8 9 10 10 9 9 8 7 7 8 8 8 8 6 5 4 4 5 6 6 6 7 9 13 17 18 16 14 12 10 8 8 8 10 11 11 12 12 12 13 12 13 13 13 12 10 10 10 10 10 9 7 5 5 6 6 nan
nan 10 9 9 8 5 2 5 11 13 12 11 10 9 9 9 8 8 7 8 9 9 9 10 10 10 10 10 11 10 10 9 10 10 8 8 7 6 6 6 7 7 8 8 8 8 8 10 10 11 11 11 9 7 5 7 7 7 6 7 7 7 6 6 6 6 5 5 7 9 13 17 16 15 13 11 10 9 10 11 12 12 12 12 12 12 13 13 13 12 11 9 9 9 10 10 10 9 7 6 5 6 nan
nan 9 9 9 8 5 4 7 11 13 13 11 9 9 9 9 8 8 8 8 9 10 9 9 10 11 11 11 11 10 10 9 9 10 10 10 10 8 6 7 7 8 9 10 9 8 8 9 10 9 10 11 10 9 8 7 6 5 5 8 10 11 10 9 7 7 6 4 5 6 9 13 15 15 14 12 11 10 10 11 12 12 12 12 12 12 13 14 13 11 10 8 8 9 9 10 10 10 9 7 6 6 nan
nan 10 10 9 7 4 4 8 12 14 12 10 9 8 9 8 8 8 8 9 9 9 8 9 9 9 11 11 10 10 10 9 9 8 8 9 10 10 9 9 9 9 9 9 9 9 8 8 9 9 9 9 11 12 13 10 8 6 6 7 10 12 12 10 8 7 6 5 5 5 6 8 12 15 15 14 13 12 11 12 12 12 12 12 12 12 14 14 13 12 9 7 7 7 8 9 10 11 11 9 8 8 nan
nan 11 10 7 6 4 5 10 14 14 11 9 8 8 9 9 9 9 8 9 8 8 8 8 8 9 9 8 9 10 10 9 8 7 7 7 8 9 9 10 10 10 9 9 9 9 8 8 9 10 9 8 10 12 14 13 12 10 8 7 7 10 11 9 8 7 7 7 6 7 7 5 6 10 14 15 16 16 15 14 13 13 12 12 12 13 13 15 15 14 10 6 5 5 6 7 8 9 10 10 10 9 nan
nan 11 9 6 6 5 7 11 14 13 10 9 9 9 9 9 9 7 7 8 8 7 7 7 8 9 9 8 9 10 10 10 9 9 9 8 8 8 8 8 9 10 9 9 8 8 8 8 8 9 8 7 8 9 10 12 12 11 9 9 8 8 9 9 8 8 8 8 8 8 9 8 5 4 9 12 13 16 18 18 17 15 13 12 12 13 13 14 15 16 13 9 6 5 5 4 5 6 7 9 10 10 nan
nan 11 8 5 6 7 9 11 14 12 9 9 8 7 8 8 7 5 6 8 9 8 8 8 9 9 10 11 13 13 11 11 11 11 12 11 10 10 10 9 9 9 9 9 9 8 8 8 7 8 8 8 8 7 8 10 10 9 9 10 10 9 8 8 9 9 10 9 9 8 9 10 8 5 5 8 9 11 15 18 19 18 15 14 13 13 12 12 14 16 17 15 11 7 4 4 4 4 5 6 7 8 nan
nan 12 7 5 7 10 10 10 12 11 9 9 8 6 5 5 3 3 6 9 9 9 9 10 10 10 10 12 14 13 12 12 11 11 10 11 12 12 13 12 11 10 10 9 9 9 7 7 7 8 9 9 9 9 9 9 8 8 9 10 10 10 9 8 9 9 9 8 9 8 7 8 10 8 5 7 8 9 11 15 18 19 18 16 14 13 12 11 12 14 18 18 16 12 7 5 4 4 4 4 5 5 nan
nan 12 8 6 8 11 10 8 11 11 10 9 7 4 3 3 4 5 7 8 10 10 11 12 11 10 10 12 12 12 10 11 11 11 11 10 11 13 13 12 11 11 13 14 13 13 11 9 8 8 8 9 9 9 9 9 9 8 8 8 9 11 11 10 10 9 8 7 7 7 6 5 8 9 8 7 8 8 8 10 13 16 19 19 16 14 13 10 10 13 16 19 20 17 13 9 6 5 4 4 4 3 nan
nan 10 8 8 8 10 8 7 11 11 10 7 5 4 4 5 6 7 9 10 13 13 14 13 12 11 11 12 12 9 6 9 10 14 15 11 9 9 10 12 12 11 11 14 16 17 17 13 10 8 7 8 9 9 9 9 8 7 7 7 8 10 12 13 12 10 10 10 8 7 6 5 6 8 9 9 8 9 7 7 9 11 15 19 18 16 15 14 11 11 13 17 19 21 19 15 11 8 7 6 6 5 nan
nan 7 8 10 9 10 8 8 10 10 8 6 6 8 8 7 11 14 13 11 13 13 14 13 11 11 13 12 11 7 6 9 10 13 14 11 8 6 9 10 10 10 11 10 14 17 18 15 13 11 8 6 7 8 9 8 8 7 6 7 8 8 10 12 13 12 11 12 11 10 8 7 6 6 8 7 7 7 7 7 7 8 10 13 15 15 15 16 15 13 11 12 15 20 23 20 16 12 10 9 8 7 nan
nan 7 9 11 10 10 8 8 9 8 9 11 11 12 11 11 15 16 12 9 11 12 13 12 9 10 11 11 10 7 8 10 11 10 9 9 9 10 11 10 11 12 12 9 10 10 12 14 16 17 14 9 7 6 8 8 9 8 7 7 8 8 9 10 11 11 12 12 12 12 12 10 9 7 6 6 4 4 5 5 6 7 8 9 10 11 12 13 14 16 14 11 10 12 18 20 19 16 14 13 11 9 nan
nan 7 10 12 10 10 9 7 6 8 11 12 11 11 9 9 10 10 9 9 10 11 10 8 7 8 9 11 10 8 10 11 11 11 9 9 12 15 13 10 9 10 14 16 12 8 6 11 15 18 20 16 12 9 7 7 8 9 9 7 8 9 10 9 9 9 10 11 11 11 11 11 11 10 9 8 6 5 5 4 3 4 7 8 8 8 10 13 15 16 15 12 9 9 13 16 17 17 17 17 14 12 nan
nan 5 11 15 12 11 7 5 6 9 11 12 11 10 7 6 8 9 8 7 7 7 7 7 9 10 11 10 10 9 10 9 9 10 8 8 10 12 12 9 6 7 13 17 14 12 9 11 11 13 16 19 18 15 11 9 8 10 11 10 8 8 8 9 9 9 10 11 11 11 9 9 9 10 9 9 10 10 9 6 3 2 4 6 7 7 9 13 16 15 14 14 13 9 9 10 12 15 18 20 18 15 nan
nan 9 13 13 11 9 5 5 10 10 11 12 11 9 7 8 10 8 5 4 4 5 9 10 9 10 11 9 9 7 7 8 11 11 9 8 7 5 7 9 9 7 5 7 10 10 9 10 10 11 11 15 17 19 18 14 10 9 10 10 8 7 6 8 9 10 10 10 11 12 12 11 10 10 8 8 9 10 9 8 6 4 3 4 6 7 9 10 11 10 12 15 16 13 10 10 10 11 14 18 19 17 nan
nan 11 10 7 7 10 9 9 10 10 12 12 11 9 9 9 7 6 6 5 6 8 12 11 7 8 8 8 7 7 8 10 10 11 12 10 8 4 3 7 9 7 2 4 6 7 10 9 10 11 11 10 12 14 17 17 15 11 10 10 9 7 6 7 8 8 9 9 9 10 12 12 13 12 11 9 9 9 8 8 8 7 6 5 6 7 9 7 5 6 10 13 15 16 14 12 11 9 11 14 17 17 nan
nan 7 6 7 8 11 13 13 10 12 13 10 10 9 9 8 8 9 9 9 9 9 9 10 8 8 7 8 8 9 8 9 10 12 12 12 11 9 5 3 2 2 1 5 8 9 11 10 9 9 9 7 9 10 11 13 15 15 13 13 12 10 9 6 5 6 7 7 7 8 9 9 11 11 12 10 10 11 10 8 8 8 8 7 6 7 10 9 6 5 8 9 12 18 18 14 12 10 9 11 14 17 nan
nan 6 6 8 8 10 14 14 11 12 11 8 9 10 10 9 9 9 8 7 7 4 5 10 10 9 10 11 11 10 9 8 9 11 12 14 14 13 10 5 2 1 0 4 7 7 6 5 6 5 6 5 6 8 10 11 13 15 15 13 13 13 14 10 7 5 5 6 6 6 7 9 9 10 12 11 11 13 12 10 9 9 9 10 9 9 11 12 10 7 7 9 12 17 18 13 13 12 10 9 11 14 nan
nan 8 9 8 7 9 12 12 12 11 9 8 11 12 10 8 8 9 7 6 4 2 7 10 9 9 10 10 11 10 9 8 8 9 13 17 17 16 15 12 9 7 5 2 4 5 3 2 3 4 5 5 3 3 5 9 12 14 15 13 11 11 15 16 13 9 8 7 6 5 5 8 10 10 12 12 11 12 14 12 11 11 10 11 11 11 11 12 10 9 8 10 12 15 15 13 13 12 11 9 9 11 nan
nan 10 10 7 7 9 12 12 12 12 9 10 12 12 10 8 8 7 5 4 3 4 8 9 10 11 10 10 10 10 10 9 8 8 12 13 13 14 13 13 13 13 12 7 7 8 7 3 1 3 5 6 3 2 -1 3 7 10 12 13 11 10 11 15 15 14 13 12 11 9 7 6 7 10 11 11 11 11 13 13 12 11 11 10 10 11 12 12 10 10 8 9 12 13 12 12 11 11 10 10 9 9 nan
nan nan nan nan nan nan nan nan nan nan nan nan nan nan nan nan nan nan nan nan nan nan nan nan nan nan nan nan nan nan nan nan nan nan nan nan nan nan nan nan nan nan nan nan nan nan nan nan nan nan nan nan nan nan nan nan nan nan nan nan nan nan nan nan nan nan nan nan nan nan nan nan nan nan nan nan nan nan nan nan nan nan nan nan nan nan nan nan nan nan nan nan nan nan nan nan nan nan nan nan nan nan nan
CAPE
1283 1615 1976 2454 2815 2815 2759 2473 2513 2513 2833 2970 2962 2962 2902 2793 2793 2690 2825 2952 2952 3035 2883 2541 2165 2165 1961 1852 1882 1882 2056 2543 2760 2760 2912 2908 2908 2909 2956 3102 3102 3099 3147 3195 3093 3093 3033 2545 2760 2760 2379 2101 2042 2042 2072 1894 1894 1640 1792 1991 1991 1896 1844 2042 2286 2286 2773 2815 2523 2523 2371 2540 2755 2755 2679 2465 2465 2351 2192 2034 2034 1877 1855 1837 1863 1863 2024 2151 2284 2284 2421 2407 2389 2389 2371 2356 2356 2293 2336 2434 2434 2643 2860
1737 1880 1905 1936 2274 2274 2664 2419 2363 2363 2629 2765 2856 2856 2847 2738 2738 2725 2813 2894 2894 2975 2919 2816 2605 2605 2228 1994 1944 1944 1937 2106 2218 2218 2185 2316 2316 2740 2950 3043 3043 3085 3178 3276 3077 3077 2924 2723 2752 2752 2462 2183 2124 2124 2153 1974 1974 1924 1788 1985 1985 2058 1963 1708 2237 2237 2764 2851 2698 2698 2498 2578 2749 2749 2582 2465 2465 2396 2188 2077 2077 1965 1898 1877 1860 1860 2021 2146 2276 2276 2362 2397 2379 2379 2360 2343 2343 2328 2268 2413 2413 2566 2833
2001 2160 1929 1670 1902 1902 2360 2249 2146 2146 2355 2569 2655 2655 2692 2680 2680 2760 2843 2830 2830 2867 2909 2856 2621 2621 2211 2091 2035 2035 1990 2078 1955 1955 1845 1969 1969 2391 2765 2982 2982 3069 3152 3205 2961 2961 2909 2618 2744 2744 2591 2397 2336 2336 2147 2009 2009 2003 2078 2022 2022 2223 1957 1662 2102 2102 2707 2885 2778 2778 2622 2657 2642 2642 2436 2375 2375 2447 2236 2073 2073 2007 1985 1963 1945 1945 2020 2098 2225 2225 2307 2389 2369 2369 2402 2383 2383 2366 2354 2501 2501 2600 2809
1859 2124 2144 2005 1988 1988 2102 1954 1898 1898 2055 2432 2550 2550 2490 2525 2525 2562 2689 2723 2723 2760 2758 2569 2066 2066 1895 1889 1947 1947 2094 2318 2178 2178 2043 2005 2005 2130 2442 2894 2894 2936 3032 3042 2800 2800 2611 2422 2595 2595 2676 2569 2416 2416 2137 2000 2000 1994 2071 2060 2060 2260 1828 1695 2011 2011 2651 2918 2904 2904 2744 2732 2485 2485 2288 2327 2327 2407 2285 2118 2118 2093 2117 2099 1989 1989 2018 2095 2221 2221 2303 2384 2362 2362 2393 2424 2424 2457 2547 2698 2698 2796 2897
1999 2199 2223 2123 2026 2026 2149 2179 2126 2126 2154 2226 2288 2288 2344 2379 2379 2414 2539 2620 2620 2656 2656 2467 2023 2023 1802 1628 1536 1536 1619 2016 2290 2290 2376 2281 2281 2273 2429 2651 2651 2596 2688 2663 2648 2648 2784 2500 2629 2629 2666 2605 2497 2497 2259 1989 1989 1982 2103 2051 2051 2082 1739 1809 2044 2044 2551 2952 3022 3022 2798 2496 2502 2502 2286 2318 2318 2451 2422 2252 2252 2180 2250 2282 2123 2123 2059 2090 2169 2169 2298 2380 2358 2358 2385 2464 2464 2496 2585 2736 2736 2836 2990
2060 2213 2188 2127 2072 2072 2322 2408 2312 2312 2124 2107 2108 2108 2182 2192 2192 2280 2394 2477 2477 2514 2558 2459 2141 2141 1799 1373 1206 1206 1218 1687 2172 2172 2401 2371 2371 2291 2452 2525 2525 2333 2247 2189 2352 2352 2541 2766 2758 2758 2608 2594 2534 2534 2339 2106 2106 2095 2174 2124 2124 1946 1811 1922 2160 2160 2496 2890 3017 3017 2759 2431 2517 2517 2330 2312 2312 2536 2473 2391 2391 2313 2428 2464 2257 2257 2144 2084 2163 2163 2245 2279 2354 2354 2379 2404 2404 2483 2520 2616 2616 2819 2974
2006 2154 2095 1982 2092 2092 2340 2448 2185 2185 2043 2119 2034 2034 2041 2040 2040 2145 2225 2302 2302 2381 2464 2543 2305 2305 1745 1336 1066 1066 1101 1298 1716 1716 1852 1964 1964 2160 2396 2489 2489 2190 1800 1587 2003 2003 2447 2949 2658 2658 2554 2492 2388 2388 2374 2183 2183 2168 2201 2193 2193 1891 1882 2036 2149 2149 2484 2558 2586 2586 2523 2440 2584 2584 2366 2354 2354 2479 2610 2532 2532 2501 2564 2597 2438 2438 2323 2168 2112 2112 2146 2226 2301 2301 2277 2299 2299 2324 2357 2446 2446 2644 2849
2082 2097 1996 1805 1792 1792 2056 2294 2230 2230 2046 1863 1683 1683 1791 1901 1901 2039 2120 2265 2265 2343 2375 2450 2392 2392 1944 1491 1257 1257 1180 1189 1316 1316 1411 1586 1586 1892 2096 2318 2318 2019 1545 1197 1544 1544 2044 2815 2703 2703 2548 2390 2287 2287 2230 2086 2086 2113 2230 2264 2264 2000 1992 2150 2179 2179 2471 2453 2427 2427 2430 2559 2598 2598 2440 2385 2385 2517 2695 2622 2622 2594 2610 2636 2571 2571 2456 2300 2196 2196 2186 2218 2294 2294 2224 2246 2246 2222 2204 2285 2285 2424 2622
2039 2111 1964 1693 1632 1632 1822 2199 2247 2247 2054 1700 1527 1527 1637 1880 1880 1993 2090 2234 2234 2261 2244 2273 2348 2348 2202 1849 1521 1521 1366 1293 1186 1186 1215 1422 1422 1717 1890 2152 2152 1881 1388 1133 1292 1292 1617 2380 2610 2610 2588 2473 2273 2273 2172 2114 2114 2099 2129 2205 2205 2068 2061 2221 2295 2295 2456 2436 2413 2413 2449 2633 2672 2672 2563 2460 2460 2548 2828 2709 2709 2634 2605 2628 2657 2657 2590 2480 2327 2327 2224 2209 2237 2237 2262 2145 2145 2078 2013 2088 2088 2217 2456
1942 2193 2077 1766 1670 1670 1842 2081 2221 2221 2190 1872 1698 1698 1821 1935 1935 2005 2022 2166 2166 2101 2082 2061 2301 2301 2420 2190 1928 1928 1723 1604 1446 1446 1359 1417 1417 1605 1763 1956 1956 1845 1500 1115 1204 1204 1444 2153 2443 2443 2400 2373 2214 2214 2068 2183 2183 2083 2071 2018 2018 2010 2087 2292 2411 2411 2486 2513 2493 2493 2575 2707 2795 2795 2687 2580 2580 2578 2860 2794 2794 2671 2596 2666 2696 2696 2727 2662 2507 2507 2351 2290 2271 2271 2297 2182 2182 2026 1964 1947 1947 2069 2201
2036 2326 2346 2200 2137 2137 2127 2245 2230 2230 2208 2046 1812 1812 1768 1849 1849 1870 1990 2135 2135 2115 2088 2151 2300 2300 2504 2452 2274 2274 2056 1889 1726 1726 1597 1420 1420 1144 1287 1827 1827 2002 1895 1669 1603 1603 1635 2163 2113 2113 2211 2181 2155 2155 2049 2163 2163 2066 2012 1876 1876 1910 2156 2407 2528 2528 2561 2592 2571 2571 2697 2830 2869 2869 2817 2705 2705 2649 2838 2876 2876 2707 2630 2655 2683 2683 2863 2848 2689 2689 2529 2369 2398 2398 2378 2264 2264 2062 1958 1855 1855 1927 2005
2187 2385 2490 2463 2399 2399 2341 2326 2269 2269 2258 2177 1989 1989 1911 1959 1959 2046 2085 2146 2146 2163 2225 2285 2391 2391 2508 2541 2490 2490 2356 2137 1966 1966 1839 1449 1449 970 1022 1715 1715 2153 2158 2001 1844 1844 1807 2226 2002 2002 2018 2031 2096 2096 2072 2143 2143 2047 2036 1818 1818 1892 2181 2478 2601 2601 2636 2623 2650 2650 2724 2839 2873 2873 2846 2741 2741 2773 2867 2855 2855 2742 2664 2642 2719 2719 2900 2936 2824 2824 2663 2501 2431 2431 2459 2345 2345 2143 1951 1849 1849 1791 1906
2235 2346 2405 2295 2318 2318 2303 2288 2230 2230 2255 2327 2280 2280 2266 2294 2294 2339 2339 2274 2274 2294 2316 2381 2492 2492 2475 2501 2574 2574 2522 2388 2211 2211 1991 1554 1554 1058 1166 1905 1905 2187 2098 2014 1901 1901 1603 2210 1931 1931 1904 1923 2036 2036 2100 2124 2124 2113 2016 1759 1759 1915 2247 2548 2674 2674 2663 2698 2727 2727 2754 2926 2893 2893 2726 2814 2814 2946 2948 2954 2954 2822 2701 2677 2755 2755 2938 2975 2912 2912 2750 2539 2469 2469 2447 2381 2381 2225 2030 1842 1842 1783 1811
2014 2167 2192 2217 2069 2069 2139 2124 2106 2106 2132 2207 2326 2326 2398 2396 2396 2325 2214 2189 2189 2294 2358 2428 2546 2546 2525 2548 2617 2617 2650 2555 2464 2464 2280 2006 2006 1741 1757 2169 2169 2190 2021 1912 1966 1966 1904 1989 2022 2022 1926 1905 1843 1843 1826 2020 2020 2182 2038 1738 1738 1896 2225 2570 2698 2698 2734 2770 2755 2755 2782 2857 2843 2843 2644 2683 2683 2923 2894 2744 2744 2785 2743 2764 2793 2793 2927 2966 2855 2855 2743 2580 2462 2462 2439 2372 2372 2263 2112 1920 1920 1817 1759
1852 1874 2028 1760 1865 1865 1932 1917 1945 1945 2015 2045 2163 2163 2320 2343 2343 2235 2173 2193 2193 2211 2228 2255 2454 2454 2569 2588 2567 2567 2553 2545 2494 2494 2396 2254 2254 2208 2168 2271 2271 2135 1933 1772 1953 1953 1797 1702 1959 1959 1992 1888 1869 1869 1639 1834 1834 2209 1887 1756 1756 1959 2204 2546 2719 2719 2758 2791 2781 2781 2761 2742 2769 2769 2570 2557 2557 2789 2882 2552 2552 2813 2829 2802 2831 2831 2916 2905 2845 2845 2686 2573 2455 2455 2385 2413 2413 2302 2149 2000 2000 1852 1749
1741 1722 1787 1605 1626 1626 1730 1838 1911 1911 1939 1925 1996 1996 2108 2218 2218 2243 2220 2236 2236 2190 2133 2093 2291 2291 2526 2544 2432 2432 2327 2358 2302 2302 2246 2236 2236 2188 2146 2020 2020 1975 1958 2063 1684 1684 1574 1516 1595 1595 1718 1874 1854 1854 1626 1733 1733 1972 1739 1773 1773 1978 2227 2523 2694 2694 2731 2763 2669 2669 2589 2699 2798 2798 2591 2443 2443 2477 2673 2542 2542 2771 2873 2883 2865 2865 2851 2890 2830 2830 2672 2562 2445 2445 2423 2356 2356 2292 2231 2079 2079 1929 1779
1582 1610 1596 1535 1556 1556 1657 1804 1875 1875 1903 1845 1871 1871 1940 2094 2094 2204 2267 2326 2326 2297 2262 2270 2288 2288 2420 2463 2390 2390 2026 2092 2075 2075 1973 1961 1961 1953 1905 1815 1815 1638 1671 1867 1670 1670 1519 1421 1372 1372 1407 1600 1589 1589 1610 1758 1758 1656 1675 1748 1748 1996 2250 2503 2624 2624 2706 2739 2544 2544 2506 2685 2788 2788 2717 2418 2418 2187 2474 2572 2572 2819 2954 2911 2843 2843 2833 2823 2763 2763 2654 2545 2479 2479 2362 2343 2343 2280 2263 2156 2156 1959 1808
952 1098 1087 1396 1538 1538 1594 1737 1805 1805 1787 1767 1788 1788 1854 2011 2011 2120 2183 2285 2285 2350 2323 2313 2139 2139 2217 2193 2051 2051 2288 1924 2075 2075 1801 1786 1786 1689 1635 1624 1624 1696 1725 1375 1401 1401 1425 1368 1356 1356 1269 1221 1327 1327 1471 1698 1698 1595 1656 1766 1766 2057 2271 2486 2605 2605 2682 2717 2552 2552 2582 2646 2767 2767 2797 2500 2500 2123 2342 2644 2644 2833 2920 2941 2919 2919 2862 2807 2747 2747 2685 2575 2462 2462 2347 2327 2327 2264 2248 2185 2185 2032 1835
340 610 923 1222 1443 1443 1498 1596 1615 1615 1550 1569 1708 1708 1769 1885 1885 1995 2012 1986 1986 2002 1979 1966 1962 1962 1762 1761 1851 1851 2125 2149 2162 2162 1975 1665 1665 1482 1344 1703 1703 1770 1453 1193 1181 1181 1252 1398 1263 1263 1213 1203 1190 1190 1334 1559 1559 1538 1598 1788 1788 2078 2295 2467 2576 2576 2622 2692 2608 2608 2600 2598 2615 2615 2778 2578 2578 2260 2304 2711 2711 2893 2935 2966 2900 2900 2843 2839 2782 2782 2670 2560 2446 2446 2377 2310 2310 2249 2187 2216 2216 2106 1951
119 283 657 904 1191 1191 1289 1347 1245 1245 1177 1230 1409 1409 1513 1246 1246 1029 1012 1038 1038 1137 1197 1331 1310 1310 1293 1001 1622 1622 1735 1832 1814 1814 1741 1930 1930 1907 1848 1746 1746 1561 1378 1196 985 985 763 727 788 788 984 1104 1155 1155 1174 1240 1240 1105 1245 1384 1384 1613 1815 2070 2329 2329 2449 2514 2533 2533 2456 2428 2528 2528 2759 2782 2782 2515 2005 2079 2079 2603 2915 3021 3011 3011 2905 2851 2796 2796 2687 2577 2464 2464 2395 2281 2281 2220 2116 2145 2145 2216 2101
384 607 947 1069 1246 1246 1309 1413 1384 1384 1270 1125 1144 1144 1126 772 772 531 608 793 793 962 1096 1192 1443 1443 1233 909 1518 1518 1705 1694 1747 1747 1551 1729 1729 1786 1599 1457 1457 1276 1255 1159 1063 1063 826 658 719 719 909 996 1044 1044 1088 962 962 909 1000 1130 1130 1269 1456 1699 2039 2039 2250 2363 2470 2470 2488 2442 2358 2358 2616 2867 2867 2490 1884 1721 1721 2270 2631 2973 3000 3000 2889 2833 2775 2775 2715 2606 2495 2495 2382 2315 2315 2207 2150 2180 2180 2250 2179
226 375 664 888 1144 1144 1248 1354 1285 1285 1212 1065 1078 1078 1181 720 720 327 392 600 600 855 1100 1200 1260 1260 1608 1420 1619 1619 1433 1492 1548 1548 1518 1483 1483 1538 1437 1256 1256 1118 947 933 954 954 901 749 774 774 738 891 1005 1005 1084 795 795 743 815 932 932 1059 1236 1467 1753 1753 1961 2121 2267 2267 2382 2344 2362 2362 2477 2659 2659 2516 1837 1600 1600 2051 2454 2917 2990 2990 2874 2865 2754 2754 2644 2535 2474 2474 2414 2303 2303 2241 2184 2216 2216 2287 2259
0 2 110 323 640 640 950 1048 1064 1064 922 748 962 962 903 683 683 308 193 280 280 582 917 1128 1150 1150 1210 1108 955 955 947 1154 1363 1363 1405 1285 1285 1299 1241 1183 1183 1084 877 826 816 816 802 721 707 707 700 754 967 967 1013 699 699 649 657 760 760 904 1066 1285 1519 1519 1677 1835 2024 2024 2176 2256 2275 2275 2475 2582 2582 2440 1948 1650 1650 1751 2243 2714 2935 2935 2862 2801 2736 2736 2623 2464 2405 2405 2396 2336 2336 2275 2218 2298 2298 2371 2296
nan nan 6 71 333 333 624 872 1000 1000 1048 932 1127 1127 981 782 782 292 33 137 137 338 746 982 1237 1237 1291 1116 914 914 984 1236 1364 1364 1329 1251 1251 1230 1093 1149 1149 1057 959 863 816 816 739 662 648 648 668 685 827 827 840 611 611 563 570 637 637 771 948 1113 1295 1295 1486 1638 1785 1785 1939 2112 2213 2213 2320 2442 2442 2382 1912 1679 1679 1509 1985 2456 2751 2751 2816 2786 2674 2674 2510 2396 2384 2384 2330 2320 2320 2308 2298 2380 2380 2409 2380
nan nan 0 5 134 134 446 749 937 937 1058 1022 951 951 957 899 899 475 163 298 298 401 614 843 976 976 1101 1153 1134 1134 1155 1294 1310 1310 1272 1244 1244 1116 1058 963 963 946 1002 944 851 851 740 665 593 593 611 657 729 729 683 454 454 486 466 553 553 680 818 962 1123 1123 1304 1449 1553 1553 1702 1873 2046 2046 2207 2418 2418 2337 1936 1780 1780 1679 1760 2224 2432 2432 2741 2776 2658 2658 2497 2381 2320 2320 2311 2303 2303 2291 2327 2412 2412 2493 2416
nan nan nan nan 2 2 204 587 811 811 884 818 792 792 769 783 783 637 475 537 537 522 565 751 950 950 1086 1095 1140 1140 1273 1256 1144 1144 1110 1090 1090 925 839 1165 1165 1344 1093 954 928 928 842 672 628 628 615 690 733 733 631 385 385 415 420 450 450 566 665 832 975 975 1209 1349 1410 1410 1515 1635 1851 1851 2054 2263 2263 2264 2041 1833 1833 1597 1557 1862 2131 2131 2500 2693 2589 2589 2437 2368 2259 2259 2247 2239 2239 2275 2309 2394 2394 2478 2453
nan nan nan nan nan nan 2 138 412 412 611 707 815 815 866 842 842 884 751 730 730 618 607 733 929 929 1184 1147 1030 1030 1163 1030 1240 1240 1441 1172 1172 921 594 1208 1208 1277 1341 957 859 859 781 743 641 641 566 606 649 649 663 459 459 371 354 381 381 487 579 708 877 877 1088 1214 1350 1350 1412 1486 1611 1611 1821 2092 2092 2261 2099 1869 1869 1496 1321 1495 1873 1873 2295 2504 2541 2541 2419 2308 2245 2245 2184 2175 2175 2166 2246 2374 2374 2461 2489
nan nan nan nan nan nan nan 1 50 50 255 433 640 640 849 937 937 978 947 955 955 926 705 671 977 977 1072 1116 964 964 1123 1256 1153 1153 1242 1173 1173 995 833 974 974 1198 1335 846 604 604 636 692 681 681 606 584 567 567 553 487 487 329 290 338 338 413 525 620 781 781 1017 1168 1256 1256 1352 1381 1459 1459 1583 1884 1884 2185 2233 1956 1956 1496 1227 1304 1806 1806 2170 2387 2553 2553 2442 2341 2277 2277 2215 2158 2158 2150 2230 2309 2309 2442 2475
nan nan nan nan nan nan nan nan 1 1 4 44 305 305 671 785 785 856 940 1174 1174 1255 1150 834 826 826 882 860 772 772 812 924 928 928 825 906 906 849 832 1000 1000 1102 1013 846 764 764 703 726 683 683 640 616 569 569 526 514 514 308 270 296 296 345 448 563 718 718 883 1091 1209 1209 1261 1321 1313 1313 1431 1682 1682 1998 2250 2086 2086 1704 1424 1272 1512 1512 1991 2249 2479 2479 2472 2369 2304 2304 2196 2137 2137 2084 2167 2245 2245 2374 2410
nan nan nan nan nan nan nan nan nan nan 0 3 6 6 204 484 484 664 867 1088 1088 1233 1169 817 675 675 747 676 726 726 686 815 842 842 802 804 804 816 764 780 780 727 713 806 904 904 967 758 683 683 637 560 571 571 528 488 488 226 230 234 234 302 376 485 631 631 788 987 1130 1130 1214 1268 1293 1293 1365 1486 1486 1819 2208 2212 2212 1997 1690 1442 1438 1438 1841 2154 2355 2355 2456 2440 2326 2326 2220 2161 2161 2108 2146 2225 2225 2353 2390
nan nan nan nan nan nan nan nan nan nan nan nan nan nan 0 24 24 254 539 681 681 907 976 942 810 810 613 441 584 584 550 834 837 837 832 760 760 697 675 622 622 598 582 606 634 634 719 878 767 767 573 505 544 544 530 489 489 266 211 195 195 239 309 410 548 548 698 919 1090 1090 1205 1257 1277 1277 1303 1417 1417 1669 2020 2267 2267 2212 2026 1759 1521 1521 1724 2027 2366 2366 2426 2460 2398 2398 2287 2184 2184 2130 2122 2203 2203 2285 2321
nan nan nan nan nan nan nan nan nan nan nan nan nan nan nan nan nan 2 77 285 285 521 691 903 1034 1034 896 526 439 439 525 678 948 948 1063 949 949 812 660 605 605 607 584 598 564 564 561 503 659 659 650 702 524 524 505 464 464 501 231 157 157 199 245 339 470 470 612 824 987 987 1162 1283 1338 1338 1361 1391 1391 1552 1898 2193 2193 2348 2308 2104 1753 1753 1755 2097 2309 2309 2398 2488 2429 2429 2312 2206 2206 2107 2099 2181 2181 2310 2300
nan nan nan nan nan nan nan nan nan nan nan nan nan nan nan nan nan nan 0 11 11 159 435 740 889 889 985 818 622 622 660 647 746 746 919 924 924 1000 863 673 673 644 615 622 581 581 575 487 479 479 736 827 521 521 432 414 414 475 230 104 104 160 183 249 369 369 504 707 892 892 1088 1238 1364 1364 1385 1409 1409 1481 1736 2082 2082 2343 2416 2303 2121 2121 1925 2148 2315 2315 2341 2412 2438 2438 2392 2231 2231 2131 2123 2160 2160 2243 2279
nan nan nan nan nan nan nan nan nan nan nan nan nan nan nan nan nan nan nan nan nan 6 129 347 607 607 838 934 903 903 781 738 626 626 577 701 701 803 803 707 707 709 677 650 602 602 534 497 302 302 467 634 488 488 337 364 364 472 457 119 119 73 142 205 298 298 427 568 744 744 959 1126 1317 1317 1411 1432 1432 1496 1618 1893 1893 2204 2461 2561 2419 2419 2288 2224 2266 2266 2265 2325 2422 2422 2405 2261 2261 2155 2103 2141 2141 2223 2212
nan nan nan nan nan nan nan nan nan nan nan nan nan nan nan nan nan nan nan nan nan nan 20 154 375 375 608 663 664 664 671 653 575 575 551 590 590 685 714 715 715 780 746 685 632 632 554 539 423 423 350 387 337 337 261 264 264 489 527 133 133 43 86 144 211 211 330 463 633 633 808 994 1202 1202 1363 1457 1457 1478 1546 1722 1722 2033 2321 2598 2519 2519 2504 2381 2267 2267 2165 2145 2297 2297 2401 2307 2307 2136 2126 2119 2119 2203 2146
nan nan nan nan nan nan nan nan nan nan nan nan nan nan nan nan nan nan nan 2 2 0 11 132 243 243 353 424 479 479 592 597 598 598 578 537 537 548 574 632 632 663 631 603 604 604 548 501 490 490 380 318 277 277 264 293 293 448 568 451 451 131 67 161 230 230 284 388 524 524 694 840 1064 1064 1283 1410 1410 1467 1566 1643 1643 1861 2194 2498 2591 2591 2663 2538 2341 2341 2191 2234 2289 2289 2379 2426 2426 2214 2149 2095 2095 2134 2124
nan nan nan nan nan nan nan nan nan nan nan nan nan nan nan nan nan 0 1 5 5 2 3 103 213 213 334 455 542 542 690 719 714 714 633 588 588 628 522 504 504 528 473 500 499 499 440 367 353 353 367 343 490 490 562 466 466 480 550 768 768 552 386 424 315 315 259 337 444 444 581 753 936 936 1175 1331 1331 1460 1556 1618 1618 1789 2072 2359 2515 2515 2713 2564 2565 2565 2407 2333 2360 2360 2461 2468 2468 2313 2140 2074 2074 2064 2102
nan nan nan nan nan nan nan nan nan nan nan nan nan nan nan nan nan 0 1 4 4 10 8 24 152 152 361 484 574 574 703 825 788 788 691 669 669 649 517 357 357 453 453 479 448 448 367 297 255 255 269 263 254 254 537 522 522 512 479 660 660 767 816 683 530 530 296 264 388 388 498 637 844 844 1072 1256 1256 1417 1550 1690 1690 1760 1989 2214 2457 2457 2638 2645 2566 2566 2460 2387 2360 2360 2492 2502 2502 2415 2192 2114 2114 2094 2084
nan nan nan nan nan nan nan nan nan nan nan nan nan nan nan nan nan nan 1 4 4 6 9 7 31 31 241 418 558 558 677 808 741 741 700 636 636 449 437 497 497 528 536 535 449 449 344 275 252 252 218 211 262 262 270 395 395 367 364 428 428 574 799 884 626 626 639 297 183 183 416 525 724 724 941 1148 1148 1339 1465 1601 1601 1747 1961 2135 2413 2413 2590 2741 2505 2505 2435 2386 2363 2363 2373 2509 2509 2464 2296 2169 2169 2091 2074
nan nan nan nan nan nan nan nan nan nan nan nan nan nan nan nan nan nan nan 0 0 3 9 9 6 6 119 228 327 327 454 662 576 576 509 476 476 354 385 493 493 502 622 652 563 563 451 347 300 300 256 240 270 270 297 311 311 309 284 323 323 360 549 739 695 695 806 694 321 321 335 416 578 578 815 1044 1044 1226 1348 1475 1475 1656 1896 2122 2324 2324 2633 2780 2605 2605 2450 2374 2291 2291 2281 2360 2360 2520 2445 2268 2268 2190 2165
nan nan nan nan nan nan nan nan nan nan nan nan nan nan nan nan nan nan nan nan nan 1 11 16 7 7 46 136 237 237 340 422 423 423 319 270 270 248 334 365 365 394 558 653 594 594 535 479 456 456 381 332 304 304 306 300 300 409 359 310 310 302 386 525 562 562 823 873 821 821 236 359 463 463 661 912 912 1085 1200 1319 1319 1525 1752 2051 2330 2330 2633 2735 2602 2602 2419 2384 2301 2301 2098 2169 2169 2330 2506 2369 2369 2288 2218
nan nan nan nan nan nan nan nan nan nan nan nan nan nan nan nan nan nan nan nan nan nan 5 14 8 8 14 100 207 207 311 493 393 393 265 171 171 137 181 269 269 289 414 531 534 534 480 457 545 545 606 492 377 377 326 291 291 645 664 467 467 382 281 316 494 494 741 859 841 841 526 236 312 312 460 721 721 886 1027 1174 1174 1327 1534 1898 2254 2254 2550 2752 2506 2506 2532 2377 2278 2278 1977 1982 1982 2148 2345 2540 2540 2337 2318
nan nan nan nan nan nan nan nan nan nan nan nan nan nan nan nan nan nan nan nan nan nan nan 3 8 8 10 11 80 80 208 286 341 341 438 405 405 345 364 363 363 402 394 468 443 443 451 483 580 580 705 873 805 805 518 437 437 510 689 604 604 748 799 777 676 676 788 949 889 889 942 683 247 247 256 327 327 458 529 658 658 850 1153 1536 2039 2039 2492 2688 2594 2594 2449 2457 2189 2189 2035 1877 1877 1868 1976 2275 2275 2435 2415
nan nan nan nan nan nan nan nan nan nan nan nan nan nan nan nan nan nan nan 0 0 nan nan 2 11 11 13 7 24 24 81 142 194 194 288 581 581 481 470 366 366 436 454 471 468 468 451 456 490 490 672 766 916 916 885 823 823 637 622 632 632 712 912 998 926 926 856 832 810 810 861 876 626 626 335 318 318 297 302 397 397 578 888 1300 1765 1765 2289 2666 2541 2541 2526 2532 2341 2341 2089 2020 2020 1954 1999 2190 2190 2374 2428
nan nan nan nan nan nan nan nan nan nan nan nan nan nan nan nan nan nan nan nan nan 0 0 2 11 11 16 10 9 9 34 84 128 128 177 244 244 324 331 287 287 298 462 481 511 511 542 488 488 488 578 671 774 774 962 1092 1092 1153 939 875 875 822 1064 1033 1036 1036 782 722 734 734 782 870 883 883 749 525 525 481 444 255 255 378 643 1023 1503 1503 2006 2456 2565 2565 2550 2503 2360 2360 2232 2132 2132 2126 2110 2183 2183 2304 2376
nan nan nan nan nan nan nan nan nan nan nan nan nan nan nan nan nan nan nan nan nan 1 2 3 7 7 11 8 12 12 19 75 138 138 158 146 146 88 99 141 141 197 246 289 352 352 490 555 515 515 546 612 679 679 822 908 908 1237 1331 1186 1186 1128 1178 1072 999 999 895 688 663 663 745 793 805 805 778 685 685 550 572 224 224 211 438 800 1274 1274 1779 2166 2493 2493 2576 2535 2480 2480 2347 2268 2268 2069 2070 2192 2192 2223 2301
nan nan nan nan nan nan nan nan nan nan nan nan nan nan nan nan nan nan nan 0 0 1 3 9 9 9 12 8 8 8 12 66 134 134 174 159 159 135 113 99 99 188 253 223 212 212 332 497 489 489 545 549 585 585 658 842 842 1044 1096 1154 1154 1208 1222 1152 1155 1155 1049 834 846 846 784 683 694 694 739 710 710 536 558 354 354 96 240 528 997 997 1486 1806 2290 2290 2634 2701 2478 2478 2474 2322 2322 2153 2003 2199 2199 2224 2227
0 0 nan nan nan nan nan nan nan nan nan nan nan nan nan nan nan nan 0 1 1 1 3 10 15 15 17 13 7 7 10 38 104 104 151 143 143 133 194 190 190 200 228 237 244 244 300 446 434 434 486 488 554 554 598 775 775 854 945 922 922 1012 1109 1194 1279 1279 1167 943 958 958 859 719 657 657 736 778 778 649 545 508 508 211 99 297 680 680 1151 1354 1750 1750 2324 2742 2498 2498 2432 2368 2368 2352 2205 2164 2164 1987 1989
1 1 0 nan nan nan nan nan 0 0 nan nan nan nan nan nan nan nan nan 0 0 2 6 8 19 19 22 16 11 11 13 17 75 75 139 95 95 82 127 155 155 131 103 186 275 275 291 295 322 322 368 491 529 529 602 740 740 715 761 770 770 896 1066 1077 1285 1285 1207 1248 1105 1105 968 945 765 765 736 815 815 786 659 527 527 486 193 191 411 411 779 924 1151 1151 1649 2349 2368 2368 2325 2339 2339 2314 2324 2182 2182 1908 1766
1 1 1 0 0 0 0 0 1 1 0 0 nan nan nan nan nan nan nan nan nan 1 3 5 14 14 20 17 18 18 13 20 49 49 109 76 76 56 8 5 5 43 170 137 126 126 154 189 203 203 223 375 441 441 541 677 677 785 654 664 664 646 946 998 1165 1165 1165 1327 1215 1215 997 982 957 957 848 892 892 898 729 577 577 536 382 462 397 397 527 724 676 676 1026 1671 1997 1997 2129 2309 2309 2323 2328 2185 2185 1866 1604
1 1 1 1 1 1 1 1 2 2 2 3 0 0 nan nan nan nan nan nan nan 0 5 6 10 10 18 24 32 32 19 28 47 47 43 33 33 57 52 34 34 19 13 108 13 13 32 94 181 181 219 276 334 334 423 520 520 687 656 531 531 540 688 811 1005 1005 1164 1246 1249 1249 1027 1010 920 920 1000 1084 1084 1015 948 850 850 722 579 696 620 620 764 716 519 519 722 1006 1311 1311 1760 2158 2158 2328 2280 2325 2325 2066 1716
2 2 2 2 2 2 3 3 2 2 6 2 0 0 nan nan nan nan nan nan nan 1 10 12 12 12 22 38 40 40 24 33 52 52 58 43 43 78 118 72 72 38 21 10 26 26 7 12 45 45 93 178 242 242 320 374 374 466 693 596 596 636 653 704 819 819 935 1126 1167 1167 1021 1078 984 984 1007 1127 1127 1171 1101 1074 1074 974 874 750 456 456 446 380 275 275 342 702 944 944 1322 1868 1868 2193 2265 2253 2253 2121 1841
3 2 2 3 4 4 5 4 3 3 4 1 1 1 0 nan nan nan nan nan nan 3 9 22 25 25 24 40 36 36 24 39 73 73 71 74 74 77 91 70 70 56 37 22 6 6 1 3 4 4 29 88 155 155 231 271 271 326 388 506 506 608 720 666 644 644 718 861 974 974 1020 1036 1053 1053 1076 1095 1095 1176 1143 1114 1114 1086 1020 992 562 562 583 78 nan nan 5 137 675 675 986 1462 1462 2033 2313 2214 2214 2178 1981
2 2 3 4 6 6 6 5 4 4 3 2 2 2 1 0 0 nan nan 0 0 5 13 19 37 37 35 41 33 33 25 34 58 58 64 71 71 69 76 58 58 58 29 10 19 19 nan nan nan nan nan nan nan nan 42 117 117 123 160 226 226 285 556 632 545 545 582 621 722 722 797 922 972 972 994 1019 1019 1100 1146 1117 1117 1124 1094 1066 930 930 942 413 nan nan nan nan 20 20 584 1219 1219 1785 2159 2130 2130 2086 1988
1 3 3 5 6 6 6 6 4 4 3 3 4 4 2 0 0 0 0 2 2 11 17 23 31 31 37 36 34 34 27 26 41 41 53 70 70 68 70 71 71 83 1 0 27 27 1 nan nan nan nan nan nan nan nan 16 16 33 70 73 73 76 207 352 329 329 397 466 558 558 661 809 896 896 914 898 898 948 1074 1082 1082 1127 1021 993 933 933 697 228 nan nan 4 nan nan nan 59 1179 1179 1394 1817 1899 1899 1834 1921
2 3 4 5 6 6 7 6 4 4 4 4 5 5 3 3 3 3 4 8 8 12 19 21 19 19 32 40 40 40 38 31 44 44 66 60 60 72 83 87 87 78 50 15 15 15 33 nan nan nan nan nan nan nan nan 8 8 8 26 34 34 24 76 117 222 222 346 441 501 501 636 708 749 749 764 745 745 796 886 973 973 1018 913 849 899 899 951 785 558 558 365 298 nan nan nan 653 653 1083 1500 1706 1706 1687 1744
2 3 4 7 7 7 7 6 6 6 5 6 6 6 7 7 7 9 12 13 13 13 16 13 13 13 19 41 50 50 49 37 33 33 62 74 74 83 88 86 86 94 60 37 29 29 2 nan 1 1 8 nan nan nan nan nan nan nan nan 6 6 16 24 79 202 202 264 321 447 447 584 549 582 582 520 529 529 685 744 793 793 839 811 781 829 829 956 1010 765 765 632 520 390 390 nan 135 135 797 1177 1526 1526 1643 1773
0 3 5 7 9 9 9 8 8 8 8 11 9 9 9 11 11 11 11 14 14 12 15 14 12 12 15 29 54 54 54 50 40 40 42 93 93 78 79 73 73 86 86 47 41 41 12 0 8 8 14 1 nan nan 0 0 0 0 2 1 1 8 35 54 85 85 186 272 395 395 495 458 397 397 362 395 395 614 637 617 617 630 640 650 660 660 707 791 528 528 775 546 410 410 nan 47 47 469 918 1278 1278 1596 1706
1 4 6 6 7 7 9 9 9 9 9 16 13 13 12 14 14 14 11 11 11 13 16 14 14 14 18 23 42 42 46 54 45 45 43 54 54 60 67 60 60 61 56 18 nan nan 20 32 23 23 35 1 nan nan nan 0 0 1 2 3 3 1 1 4 20 20 62 201 314 314 368 341 437 437 433 433 433 547 564 547 547 494 474 521 563 563 407 29 94 94 147 nan nan nan nan nan nan 215 641 973 973 1264 1531
3 5 5 6 6 6 6 9 10 10 11 17 16 16 17 19 19 15 14 18 18 22 19 15 14 14 16 20 33 33 36 47 51 51 51 34 34 33 69 41 41 42 35 27 nan nan 2 13 62 62 56 13 3 3 0 nan nan 0 2 1 1 0 0 1 4 4 22 134 234 234 315 289 322 322 412 479 479 486 531 478 478 424 405 420 431 431 378 328 95 95 3 nan nan nan nan nan nan 115 415 758 758 994 1288
4 5 7 5 5 5 5 8 10 10 14 21 16 16 19 18 18 16 13 19 19 26 21 19 16 16 14 15 23 23 27 32 39 39 61 49 49 26 49 44 44 40 28 25 1 1 0 0 17 17 49 50 25 25 1 2 2 nan 0 1 1 0 0 0 2 2 4 26 121 121 271 214 159 159 188 307 307 401 471 476 476 387 335 378 360 360 226 359 371 371 233 35 nan nan nan nan nan 8 292 589 589 816 1052